Weather in Prostějov

Czech Republic     49°28′20″N   17°06′25″E
temp.,
°C
wind,
m/s
gust,
m/s
humid.,
%
clouds,
%
prec.,
mm/h
press.,
hPa
HPBL,
m
23 april, fri
fri2323:00+3nw376269 0.0 1022207
02:00+2wnw412805 0.0 1023382
05:00+1nw411895 0.0 1023368
08:00+4nw7108036 0.0 1024607
11:00+7nw79545 0.0 10241348
14:00+10nw794784 0.0 10241933
17:00+10nw6104717 0.0 10231886
20:00+5nw612610 0.0 1025481
24 april, sat
sat2423:00+2nw22731 0.0 102717
02:00+1wnw11775 0.0 102612
05:000w11855 0.0 102611
08:00+5nw13705 0.0 1026272
11:00+10nw355171 0.0 10241701
14:00+13nw464484 0.0 10221951
17:00+11nnw675298 0.0 10211169
20:00+7nw4965100 0.0 1022232
25 april, sun
sun2523:00+4n1175100 0.0 102314
02:00+3wnw118499 0.0 102312
05:00+1nw22874 0.0 102330
08:00+4nnw35735 0.0 1024403
11:00+8nnw454746 0.0 10231735
14:00+10nnw57375 0.0 10222162
17:00+9n563650 0.0 10222074
20:00+4n225847 0.0 102321
26 april, mon
mon2623:00+1w006462 0.0 102410
02:000wsw11685 0.0 102410
05:00−1wnw117412 0.0 102310
08:00+4e105750 0.0 1022223
11:00+9se234327 0.0 10201720
14:00+11sse2437100 0.0 10172211
17:00+10ne344399 0.0 10161829
20:00+5ne597836 0.0 1018387
27 april, tue
tue2723:000n00914 0.0 101910
02:00−1n119247 0.0 101810
05:00−1nne229199 0.0 101619
08:00+3e247093 0.0 1015276
11:00+8se4759100 0.0 10121023
14:00+8sse61068100 0.0 10101132
17:00+7se61185100 1.1 10081088
20:00+5se51296100 2.9 1007944